Theta_e
327 325 327 326 321 320 321 317 313 316 324 321 314 315 320 316 315 319 319 321 330 336 341 345 342 343 344 345 346 346 346 347 347 348 348 346 347 346 346 346 346 347 347 345 345 347 349 350 351 352 353 353 355 356 357 357 357 358 358 358 357 357 357
326 326 326 326 325 326 321 313 314 321 325 323 319 315 314 312 313 318 317 315 321 324 332 348 347 341 344 345 346 346 346 348 347 348 348 346 347 347 347 348 347 346 348 346 345 347 348 350 351 352 353 353 354 356 357 357 357 358 359 359 359 358 357
325 328 325 323 325 326 322 319 321 322 315 313 316 316 314 312 313 315 316 318 322 322 332 348 344 340 345 343 344 347 345 347 348 346 348 347 347 348 347 348 348 348 348 347 346 347 349 350 350 352 353 353 354 356 357 358 357 358 359 359 359 359 358
324 327 324 318 320 324 325 324 323 324 318 312 313 316 316 315 316 317 315 316 322 332 346 351 342 342 345 341 343 346 344 346 346 345 347 347 347 348 348 348 348 349 348 347 347 346 349 350 350 352 353 354 355 356 357 358 358 358 358 359 360 359 359
321 320 323 320 319 322 321 319 317 317 318 316 315 316 317 319 321 322 317 314 323 345 360 354 347 342 341 341 343 344 344 345 345 346 347 347 347 347 347 348 348 348 348 347 347 347 349 350 351 352 353 354 355 355 357 358 358 358 359 359 360 360 360
316 318 326 326 324 325 322 319 318 316 316 316 313 314 318 317 318 324 324 317 325 352 358 351 351 344 339 341 340 341 345 345 344 347 346 346 348 347 347 348 348 348 350 349 348 348 349 350 352 352 353 355 355 356 357 358 359 359 359 359 359 360 360
319 324 328 326 324 326 325 323 323 321 320 316 310 315 322 316 312 322 324 316 328 362 366 355 352 345 338 340 340 340 343 345 346 346 346 347 347 347 347 347 347 349 350 350 349 349 349 351 353 353 353 355 355 357 357 357 359 359 360 360 360 360 360
321 325 328 328 326 326 322 322 324 322 320 318 316 326 332 321 313 316 316 312 325 356 367 364 363 351 340 338 340 340 342 346 347 346 346 348 348 348 348 346 348 349 350 352 353 352 352 351 352 353 353 355 355 356 358 358 359 359 360 361 360 361 361
317 319 320 321 322 323 321 322 324 322 323 321 319 326 328 319 315 316 312 310 323 348 353 355 362 357 348 346 343 341 343 345 347 347 347 349 348 349 349 347 349 350 351 356 357 356 353 351 353 354 353 355 355 356 358 359 360 360 360 361 361 361 361
314 314 316 321 322 321 321 323 322 322 324 320 317 317 314 314 320 320 316 317 331 352 344 332 341 342 343 351 347 341 343 344 347 349 348 349 351 350 350 349 350 352 354 356 357 357 353 351 354 354 353 355 355 355 358 359 360 361 361 362 363 362 362
315 316 326 339 333 319 316 319 320 321 324 321 320 315 311 320 325 318 325 334 331 335 338 329 330 330 337 353 352 345 345 343 346 350 349 350 350 349 350 349 349 354 356 356 356 356 353 351 353 355 354 355 355 355 357 358 360 362 362 362 363 363 363
319 325 334 338 331 320 316 319 318 320 324 321 319 313 315 330 322 309 331 352 327 325 342 336 329 334 343 355 355 349 347 343 344 349 349 350 349 348 351 350 351 355 356 355 356 356 354 351 352 354 354 355 355 355 356 357 359 361 362 363 364 364 364
323 326 327 328 329 326 322 321 319 319 322 320 316 316 321 331 318 310 337 358 334 331 346 339 335 347 356 359 352 346 346 345 348 352 349 349 348 348 350 350 351 354 354 355 355 355 355 352 351 353 354 354 355 355 355 357 358 360 362 363 364 364 364
322 324 325 327 328 327 323 322 323 321 322 321 318 320 324 326 322 322 339 353 346 344 350 343 340 353 368 369 355 346 346 350 356 358 353 348 347 348 350 350 350 352 353 355 354 355 356 353 351 352 353 354 354 354 355 356 357 359 361 363 364 364 365
318 322 326 326 325 326 323 322 325 322 321 322 320 321 324 323 324 328 332 336 340 346 357 356 351 360 367 359 353 354 355 358 362 361 355 350 348 349 349 349 349 350 353 354 354 355 358 354 351 351 352 354 354 354 355 355 355 357 359 361 363 364 365
315 319 323 323 322 324 319 319 325 324 320 321 319 322 327 325 327 331 327 324 330 340 351 350 350 361 358 345 354 362 360 364 366 358 355 353 348 350 351 351 352 352 353 356 355 356 356 353 351 350 351 353 353 354 355 354 355 356 358 360 361 363 364
317 319 321 321 319 318 314 316 323 325 326 325 322 324 327 325 329 329 322 324 337 345 344 339 341 352 352 352 366 367 363 373 370 357 354 354 350 351 352 353 355 354 353 355 356 357 355 352 351 351 351 352 353 354 354 354 355 355 356 359 360 362 363
321 322 322 321 316 313 317 324 328 329 330 329 327 328 331 332 334 330 326 333 344 345 341 338 337 340 345 352 361 359 358 366 368 363 359 355 351 352 352 352 353 353 354 354 353 353 352 352 352 352 352 353 353 354 355 355 355 355 355 357 359 361 363
326 326 322 318 317 322 333 336 331 330 329 332 340 347 353 355 351 344 341 345 350 349 345 343 344 344 344 347 350 348 346 349 356 363 366 363 358 354 353 352 351 350 353 355 354 351 350 353 355 354 353 354 353 353 355 355 355 355 355 356 358 360 362
328 324 319 319 327 341 349 342 335 336 333 336 349 355 357 359 358 356 352 351 355 357 351 349 349 346 345 350 351 349 348 348 348 349 354 358 359 358 358 357 356 355 351 350 351 351 351 353 355 355 355 354 354 354 355 355 356 356 355 355 358 359 361
329 324 320 323 328 333 340 342 343 344 338 335 350 354 352 354 356 356 356 359 363 362 359 359 351 343 350 361 357 350 351 355 353 349 347 345 346 352 358 358 357 355 351 348 348 348 352 354 355 356 356 355 355 356 355 356 356 357 357 356 357 359 361
332 327 322 323 321 324 337 347 345 345 343 342 353 358 353 354 357 355 357 363 367 369 373 373 363 361 374 373 359 354 354 355 358 358 355 351 347 344 348 352 353 350 349 352 352 351 355 357 356 357 357 356 357 356 357 358 357 357 358 357 357 358 360
327 325 323 323 322 331 352 357 342 338 343 347 355 357 352 356 358 354 355 358 360 364 370 372 372 384 391 371 357 358 357 354 356 358 358 359 359 354 349 347 348 346 345 351 354 353 355 357 359 360 359 358 358 357 357 359 358 358 358 358 358 358 359
325 324 325 325 327 342 362 356 339 339 346 345 346 346 348 357 356 352 351 352 354 356 359 362 369 381 383 369 358 357 355 353 355 357 357 358 360 361 357 352 350 343 341 352 358 356 354 355 359 362 362 361 359 358 359 359 358 358 358 358 358 358 358
327 325 323 323 330 350 362 350 341 343 341 335 333 339 352 358 354 352 353 352 353 355 357 362 365 365 364 360 355 353 352 352 354 355 354 354 354 356 356 354 357 353 344 349 355 357 355 356 356 359 363 363 361 360 360 359 359 359 358 358 358 358 358
335 333 330 327 332 347 350 343 345 348 340 332 335 345 356 356 354 358 357 355 355 356 356 358 359 355 352 351 350 349 349 351 353 352 351 352 353 353 353 353 354 356 355 353 354 356 357 358 356 357 361 363 362 362 361 360 360 360 359 359 358 357 358
343 344 338 330 333 341 341 339 349 358 351 344 347 353 355 353 355 357 355 354 355 354 353 353 352 351 349 347 347 347 347 348 350 349 349 351 352 353 353 352 351 353 357 358 357 359 361 361 362 361 361 361 362 361 361 361 362 360 360 360 359 358 359
346 348 344 338 337 339 340 343 350 354 351 349 351 353 353 353 352 352 352 353 351 350 352 351 349 349 348 346 346 347 346 346 346 346 346 347 348 350 351 351 350 350 354 356 357 361 364 365 366 365 364 364 362 361 362 363 362 362 362 363 362 362 363
343 344 344 342 339 338 341 345 349 348 347 348 348 349 351 350 349 349 350 350 348 348 349 348 348 348 347 346 346 345 345 345 344 343 344 344 346 347 348 348 348 348 351 353 354 356 359 362 364 366 366 365 362 362 363 363 363 365 366 366 367 366 366
342 342 340 338 339 339 340 342 344 343 343 344 343 343 345 344 344 344 344 344 345 345 345 346 347 346 344 344 344 344 344 343 342 342 342 342 343 344 345 345 346 347 349 350 351 352 354 356 359 361 363 363 362 363 365 365 365 367 368 369 368 367 367
342 344 342 338 339 341 339 339 340 339 338 338 338 339 340 339 338 338 338 339 339 339 340 341 341 341 342 343 343 342 343 342 340 340 341 341 341 343 343 344 345 347 348 349 349 349 349 351 353 355 356 358 360 363 367 368 368 369 369 368 367 366 366
342 343 341 338 339 340 338 337 337 336 335 335 333 334 334 333 333 333 333 333 334 334 335 335 336 337 338 340 341 341 341 341 341 341 341 342 342 342 342 343 345 347 347 346 346 345 345 346 348 349 351 353 355 358 360 362 365 365 363 363 363 363 362
343 341 339 338 341 341 339 338 336 334 333 332 331 330 330 330 330 330 330 330 330 331 331 332 332 333 333 334 336 336 335 336 337 338 340 342 342 342 343 343 344 345 344 343 343 343 342 342 344 346 346 348 350 352 352 354 357 356 353 353 355 355 353
345 341 338 339 342 342 339 337 336 333 331 330 329 329 328 328 328 328 328 328 327 327 328 329 330 331 332 332 332 332 332 332 332 333 337 340 342 343 343 343 343 343 342 340 340 341 340 340 341 344 345 345 346 348 348 349 351 350 348 347 347 347 346
342 338 337 339 340 339 337 335 334 334 332 328 327 326 326 325 326 326 326 327 327 326 327 327 327 329 330 330 330 330 329 330 331 332 334 337 340 343 344 343 344 343 342 340 339 339 339 339 339 342 344 344 345 345 345 345 346 346 345 344 343 342 341
339 337 336 337 338 337 336 334 335 336 335 330 328 327 326 324 323 324 325 326 326 326 326 326 326 326 327 328 328 328 327 328 329 331 332 334 338 341 343 343 344 344 344 342 341 341 341 341 342 344 345 344 345 345 344 343 343 344 343 342 341 340 338
338 338 336 336 336 336 335 334 335 336 336 333 332 330 328 326 324 324 325 326 326 325 325 326 326 325 326 326 326 325 325 326 327 329 331 333 335 337 340 341 342 343 344 344 343 344 343 342 343 344 345 345 345 345 345 344 344 345 345 343 342 340 339
Wind_Speed
12 12 8 9 9 6 6 7 8 5 6 6 4 4 2 2 3 6 4 3 4 3 5 8 13 15 16 16 16 17 18 19 17 15 16 17 17 17 17 17 19 20 19 20 25 29 31 34 36 38 41 43 44 43 43 44 44 44 45 45 45 45 44
13 13 11 10 9 8 5 7 8 3 5 5 4 2 3 4 5 5 4 6 4 2 4 5 8 14 16 15 15 18 18 18 17 16 17 18 19 19 19 19 19 19 19 19 24 29 33 37 39 41 44 44 45 45 45 45 43 42 44 44 45 45 44
12 10 11 11 9 10 8 6 6 5 5 5 4 4 5 6 5 4 4 6 5 5 5 5 9 15 16 16 16 17 18 17 17 17 18 19 19 18 18 18 17 16 17 18 23 29 34 38 40 42 44 43 43 43 44 45 45 45 46 45 44 44 43
11 7 8 9 9 9 8 6 5 4 5 6 5 5 4 5 4 4 4 5 5 5 5 7 12 15 17 17 15 15 18 19 19 18 17 17 17 16 16 16 16 16 18 20 26 31 34 37 39 40 41 41 42 42 42 43 44 44 44 44 43 43 42
9 7 6 10 10 8 8 7 7 5 3 3 5 4 3 5 5 4 4 5 6 5 5 9 13 15 16 16 15 15 17 20 21 19 17 16 16 16 16 16 16 18 19 20 28 33 35 36 37 37 39 40 41 41 41 41 42 41 42 43 43 42 41
6 6 6 11 14 12 9 8 8 8 5 4 5 5 3 2 5 5 5 5 7 6 5 8 11 12 13 15 16 15 16 19 20 18 18 18 17 16 16 17 17 18 18 18 23 28 29 31 32 35 38 39 39 40 41 41 41 41 42 43 43 42 40
7 8 7 10 17 17 13 11 9 8 6 5 6 5 3 1 4 5 4 4 7 6 5 7 9 10 12 15 17 15 14 16 18 19 19 18 18 18 19 19 17 16 16 17 19 23 25 28 32 35 37 37 39 41 40 40 40 42 43 43 43 42 40
8 9 7 6 11 15 13 11 11 9 8 6 6 5 4 3 4 4 4 6 7 6 5 6 6 8 10 11 12 14 14 14 16 18 18 17 18 19 19 19 16 15 15 14 15 17 20 25 30 33 35 36 37 38 38 40 41 42 43 42 42 41 40
8 9 7 6 8 11 9 9 12 13 12 9 5 3 4 3 5 6 5 7 7 6 6 6 4 5 6 8 8 10 12 12 14 16 15 16 18 19 19 18 15 14 14 13 14 14 16 22 27 30 33 34 35 36 38 40 40 41 42 41 41 41 41
11 9 8 8 7 6 6 7 13 17 16 14 8 4 5 6 5 6 5 5 6 6 7 11 13 9 5 6 7 8 10 11 12 13 13 15 16 16 17 16 13 13 13 14 16 15 16 21 26 30 33 34 35 36 38 38 38 40 41 41 40 40 40
12 9 7 5 6 7 8 8 13 16 18 17 11 5 6 6 4 5 6 6 4 8 7 12 16 16 8 5 6 7 9 10 11 13 13 14 14 14 15 14 12 12 13 15 17 16 17 23 28 31 34 35 36 35 36 37 38 40 41 41 40 40 40
15 13 9 7 7 10 13 11 13 17 18 17 14 10 8 7 6 8 7 7 6 10 8 10 14 15 8 7 9 9 10 10 11 13 15 14 13 12 12 12 13 14 14 16 17 16 17 22 28 31 33 35 36 36 36 38 38 38 40 40 40 40 40
17 16 15 14 8 8 12 14 14 16 18 18 17 14 10 10 8 8 6 8 9 9 8 9 12 10 7 9 10 9 10 12 12 12 15 15 14 14 14 13 13 15 15 16 16 16 17 20 24 27 30 32 34 34 36 37 38 39 40 40 40 39 40
18 17 18 18 12 7 9 13 14 15 18 20 20 16 12 12 10 8 9 11 10 8 9 10 10 8 6 7 6 4 7 10 12 11 12 15 16 15 15 15 15 16 17 17 17 17 16 17 20 24 27 30 33 34 35 37 38 40 40 39 39 39 40
16 18 19 19 17 11 8 10 12 14 17 18 18 15 10 9 7 6 9 11 9 7 7 8 8 7 4 3 5 6 7 8 10 11 11 13 14 14 15 15 16 16 17 16 17 17 16 17 21 25 27 31 33 34 34 36 39 40 39 39 40 40 42
12 16 19 21 20 13 10 11 11 11 13 14 13 12 9 8 7 7 8 8 7 7 8 7 6 6 6 5 6 7 6 6 7 10 12 13 14 14 13 13 12 13 15 15 15 15 15 17 22 26 29 30 31 32 35 38 40 40 40 40 41 41 41
9 13 18 19 16 12 11 11 11 9 9 8 7 8 10 11 10 9 8 8 8 8 8 8 7 7 7 8 7 6 6 8 8 9 11 12 13 14 13 12 12 13 13 13 14 15 15 19 26 32 33 32 32 36 40 41 40 39 39 40 41 41 40
6 12 14 12 11 11 9 6 12 12 10 9 6 3 6 8 6 5 5 6 9 9 8 9 10 7 4 2 1 2 1 5 8 9 10 12 13 14 14 14 15 14 12 12 14 18 23 28 33 36 36 36 38 41 41 40 39 39 40 40 39 39 38
5 7 12 10 11 10 6 4 10 13 12 13 9 5 5 6 6 2 0 1 5 8 9 10 8 6 8 9 10 11 9 4 1 6 8 10 11 12 12 13 15 16 16 16 15 17 24 30 32 32 33 36 38 38 37 36 37 39 40 39 38 37 37
5 3 9 10 9 5 4 3 2 7 10 12 11 8 7 8 7 2 3 2 4 3 4 6 8 11 13 13 12 11 11 9 6 3 3 5 7 9 10 12 14 15 16 17 19 22 27 31 31 32 35 38 37 34 34 34 35 37 38 37 36 36 37
3 3 4 4 3 2 4 3 0 3 7 10 11 7 4 7 7 3 3 4 4 4 3 1 6 10 12 12 9 11 12 10 8 8 7 6 4 5 5 7 9 12 15 18 21 25 27 29 31 33 36 38 35 32 32 32 33 34 34 33 35 36 37
2 2 3 3 5 4 4 4 4 1 5 11 13 9 2 6 7 5 2 6 6 5 5 5 2 7 10 8 4 8 11 11 10 10 9 9 8 7 6 5 6 9 14 18 21 22 21 22 28 31 32 32 31 29 29 31 32 31 31 33 35 36 37
4 2 4 3 4 5 6 5 2 2 8 11 12 9 1 5 6 6 2 6 7 6 6 6 5 6 6 3 2 6 8 9 10 9 9 9 8 8 7 5 5 8 13 16 19 19 17 19 24 27 27 28 27 26 27 30 30 29 30 34 37 38 40
6 4 3 2 2 3 5 6 5 5 8 9 10 5 4 4 4 5 3 7 6 5 7 8 8 7 4 4 2 3 5 6 8 9 9 9 8 8 8 7 6 8 11 12 12 13 16 22 26 26 27 27 25 25 28 29 28 29 34 39 41 42 42
7 6 4 2 1 2 3 4 4 5 7 6 5 5 6 3 1 2 5 8 5 6 8 7 6 5 3 3 1 2 4 5 6 8 8 8 8 8 9 11 10 6 7 10 12 16 21 26 25 23 24 25 25 28 29 25 26 34 40 42 41 40 38
4 3 3 2 1 1 2 3 2 3 4 4 5 3 3 5 5 4 6 7 6 7 9 7 6 5 4 4 4 5 6 6 6 7 8 8 10 11 11 13 13 10 5 4 8 14 19 22 21 19 19 20 22 25 24 25 34 42 42 40 38 37 36
4 2 2 4 2 4 10 9 5 3 3 6 7 6 6 6 6 7 7 7 6 7 8 7 6 5 5 6 6 6 8 8 7 8 8 8 8 9 10 11 12 11 6 2 2 7 12 16 18 19 20 19 18 17 18 24 33 36 35 35 36 35 35
3 3 3 3 3 11 14 7 1 3 4 7 10 10 7 5 6 6 6 6 6 6 8 8 7 7 8 8 7 7 8 9 9 9 10 10 9 9 9 11 14 12 7 6 4 2 7 10 14 18 20 19 16 15 18 22 22 21 24 28 30 31 32
3 2 3 5 8 11 10 4 7 9 10 10 11 12 9 6 5 5 5 6 6 6 7 8 8 8 8 8 9 9 9 9 9 9 9 10 11 11 11 14 17 15 11 10 11 9 7 4 4 11 17 19 17 16 20 21 18 18 22 24 26 28 30
4 3 3 9 11 10 12 11 9 11 12 10 11 12 11 7 6 6 7 7 6 6 7 8 8 7 7 8 9 8 8 8 8 8 8 9 10 11 11 14 17 16 14 13 12 12 16 19 13 5 3 8 10 11 16 20 22 25 27 25 24 24 25
4 2 5 11 12 9 12 13 11 11 11 10 10 11 10 8 8 8 8 8 8 8 8 9 9 8 8 9 8 7 7 8 8 9 9 9 9 10 11 13 14 13 11 11 11 11 16 21 20 15 11 10 8 7 10 15 21 26 28 28 25 23 24
2 2 6 11 9 8 13 12 9 10 10 10 12 11 10 10 10 9 9 9 9 8 8 9 10 10 8 9 9 8 8 7 7 8 8 8 9 10 12 14 13 11 9 10 11 11 13 18 19 16 15 15 14 13 12 12 16 18 17 19 22 22 21
2 3 6 9 7 10 15 14 11 9 8 8 11 12 12 12 12 12 11 10 9 9 8 8 11 12 9 8 9 9 9 9 8 8 8 8 8 10 13 14 12 10 10 11 12 12 12 16 18 16 15 15 15 17 18 18 20 21 18 15 14 16 18
1 1 3 6 5 6 9 11 11 10 8 6 8 9 10 11 11 12 13 12 10 10 9 8 11 12 9 7 9 10 9 9 10 10 10 8 8 10 12 14 12 11 10 10 12 11 10 12 15 14 13 12 13 15 20 23 26 27 25 20 16 13 15
1 1 1 4 5 5 6 8 11 11 9 6 7 8 9 9 8 8 12 12 11 10 8 8 10 11 9 8 10 11 10 10 10 12 13 11 10 11 12 12 11 12 12 11 10 9 7 7 9 9 10 11 12 13 17 22 26 29 29 26 22 17 16
2 1 2 3 5 5 5 7 11 11 9 6 6 8 8 8 7 7 8 10 9 9 8 8 8 9 9 9 10 11 11 10 10 12 15 17 17 16 16 16 14 13 13 12 11 10 9 8 8 6 7 10 13 16 19 22 25 27 26 26 25 23 22
1 2 3 4 6 6 3 5 9 9 7 7 7 8 9 9 8 7 7 7 7 8 9 8 7 8 9 8 9 10 10 10 12 14 16 20 22 21 20 20 18 17 15 14 14 14 13 13 13 11 10 7 9 15 21 24 26 26 25 26 27 26 26
Wind_Direction
221 217 207 184 180 180 204 197 194 197 152 154 218 255 237 149 201 241 223 229 273 277 250 219 201 201 199 200 197 191 196 197 191 192 193 190 190 189 189 190 191 192 192 192 192 191 190 190 190 191 192 192 192 192 193 195 196 196 196 197 199 202 205
234 221 221 219 198 167 170 203 203 163 120 153 181 211 249 221 222 255 231 222 245 226 247 248 203 201 202 197 193 195 198 196 193 196 196 192 190 188 190 192 193 192 190 192 192 191 191 191 191 192 193 193 193 194 194 195 195 195 197 198 200 202 204
230 219 217 232 228 195 183 190 187 169 167 187 185 178 207 214 219 268 254 230 218 196 224 230 199 204 207 198 192 195 197 196 198 200 198 195 190 188 190 191 193 192 190 191 191 191 193 192 192 192 193 193 194 195 196 195 196 197 198 199 200 202 203
216 214 205 215 232 220 202 189 183 181 178 190 201 188 178 190 207 238 244 241 238 219 208 200 202 207 207 199 193 193 195 197 200 201 198 195 191 188 190 191 192 192 192 192 191 192 192 192 192 191 191 192 194 196 196 196 197 197 198 199 200 201 203
212 210 205 196 204 211 207 203 202 202 185 178 203 208 164 157 178 203 210 229 255 248 202 189 202 210 207 200 191 193 199 199 199 199 196 192 191 190 190 191 193 193 193 193 193 193 191 189 189 188 189 192 193 195 196 196 196 197 197 199 200 201 202
224 222 214 188 191 199 200 206 207 198 185 150 180 239 276 147 173 184 185 228 259 255 205 189 202 207 205 200 195 196 200 200 198 198 196 192 189 191 192 193 196 194 192 193 193 191 187 185 185 187 190 191 193 195 196 195 195 196 197 199 200 201 201
235 231 230 201 197 197 196 207 206 188 185 164 170 220 262 230 212 186 167 232 263 256 212 191 204 210 204 199 198 199 199 198 197 195 194 192 189 192 195 196 196 192 190 192 189 184 182 183 185 187 189 191 193 195 194 193 195 197 198 199 199 200 200
255 248 263 257 213 200 199 208 200 188 191 177 169 183 174 197 225 194 197 240 260 266 235 200 203 212 215 215 205 201 200 194 194 194 191 189 190 195 198 197 195 191 188 185 182 182 182 183 185 188 190 193 194 194 193 194 196 197 198 199 199 198 199
245 250 263 270 233 213 209 200 195 201 192 166 159 167 159 221 220 172 190 237 250 263 242 222 217 187 207 236 225 206 203 194 191 192 189 189 193 198 199 197 192 185 180 177 180 183 183 182 184 187 191 194 195 194 195 195 196 196 197 198 197 197 199
213 222 227 223 208 210 223 197 191 201 196 181 173 157 181 227 218 161 180 231 263 278 231 222 242 242 220 233 225 204 201 195 188 188 189 193 196 199 198 194 185 178 176 179 183 183 181 181 182 186 191 194 195 196 196 196 196 196 197 198 197 197 198
208 207 218 211 166 179 215 206 190 197 201 194 180 169 195 196 179 202 208 187 239 276 229 207 238 249 230 202 202 198 197 190 183 188 195 197 196 196 195 189 181 178 178 181 183 184 183 182 184 187 191 193 195 196 196 196 197 196 197 197 196 196 197
210 201 211 217 178 187 203 201 195 199 201 194 186 199 201 151 158 230 231 173 202 255 240 209 230 239 220 197 198 193 191 188 184 193 199 198 196 192 191 189 182 179 181 182 183 185 185 185 187 189 192 194 195 196 196 196 197 197 197 197 196 196 197
209 201 212 217 198 196 204 199 196 198 199 197 198 204 186 156 181 220 203 179 201 235 244 236 237 228 202 205 208 195 193 190 183 189 195 195 195 192 190 190 185 183 184 183 183 185 187 188 188 189 192 194 195 196 196 196 197 198 198 197 197 196 197
207 201 211 216 204 187 202 209 202 196 198 200 203 205 188 180 199 198 176 190 210 222 224 231 243 236 210 202 200 202 213 195 175 175 188 195 197 193 191 190 187 188 188 184 184 186 187 188 188 188 192 195 195 196 197 196 198 199 198 196 197 197 199
207 204 205 215 214 190 187 221 218 204 201 200 203 207 192 183 202 190 180 202 227 241 229 227 242 244 231 170 160 180 205 193 175 175 185 196 199 195 195 193 190 190 188 185 186 186 187 189 189 190 193 195 197 197 197 197 200 199 197 197 199 199 202
210 204 198 211 221 210 203 222 221 205 199 200 202 201 188 183 190 183 181 202 231 250 245 240 232 208 194 184 172 178 187 181 182 188 188 193 196 195 196 194 192 193 190 187 186 186 189 191 191 194 195 195 196 197 198 200 201 199 197 199 200 202 203
214 199 197 206 213 221 229 220 202 193 189 194 209 217 212 204 187 180 197 210 214 221 225 224 213 198 201 204 191 185 186 182 185 191 190 190 189 189 189 186 187 191 191 188 186 186 191 194 196 198 196 194 197 199 200 201 200 198 199 201 202 203 203
219 186 180 189 202 220 237 195 171 176 176 170 177 223 247 239 220 204 219 221 207 198 199 207 204 194 199 239 297 18 126 192 195 193 192 192 190 189 189 186 186 186 187 190 191 192 195 198 200 201 198 197 201 202 202 200 197 197 200 202 202 202 201
236 167 147 170 209 222 239 194 171 175 168 152 132 79 15 331 315 298 109 264 230 199 188 194 185 136 92 57 31 27 32 25 238 207 204 199 191 190 190 189 190 189 188 190 194 198 200 200 201 200 199 202 204 205 203 200 198 198 200 202 202 202 200
259 184 150 182 217 239 298 318 152 154 151 134 105 62 11 351 346 354 111 79 308 269 190 177 152 118 90 63 36 22 26 27 27 12 275 232 205 198 195 196 199 197 194 194 195 198 200 200 200 199 200 203 204 204 203 201 201 202 201 201 202 201 200
242 197 157 171 196 263 326 339 48 166 163 149 126 97 360 346 352 344 117 87 21 357 6 65 134 114 82 55 23 4 5 8 17 21 0 334 291 244 222 216 216 212 208 207 205 203 200 200 200 200 202 203 202 201 200 200 203 204 202 202 202 201 201
259 180 149 126 142 190 247 252 257 263 134 140 128 108 15 333 350 347 82 83 56 47 29 4 70 96 71 54 5 347 352 352 360 11 11 360 341 313 291 267 249 239 228 221 218 214 207 204 206 205 203 202 200 199 198 198 201 203 203 205 205 203 203
267 197 164 151 157 205 222 212 225 99 122 123 103 88 332 301 336 341 52 80 66 68 59 35 56 84 84 104 290 331 342 348 357 4 5 3 353 333 316 289 254 251 250 240 230 221 213 212 212 208 204 200 199 200 200 199 199 201 204 207 207 205 205
229 207 171 162 177 217 205 181 161 136 127 104 88 107 219 252 310 323 46 76 63 69 75 61 60 77 115 166 216 333 344 348 356 4 3 357 353 350 344 329 293 251 240 238 232 221 216 220 219 211 202 198 198 203 205 201 199 201 205 208 209 208 207
218 198 165 149 215 236 205 199 186 142 117 101 118 180 213 181 148 341 55 82 72 64 72 72 74 86 106 127 96 11 19 17 9 6 0 354 354 357 357 354 345 304 238 221 222 224 222 223 224 217 205 200 200 204 205 202 202 207 209 210 210 209 207
258 197 138 123 190 253 327 330 339 96 121 174 189 178 138 117 106 56 55 70 70 70 74 80 98 108 94 78 59 34 33 36 25 10 4 4 1 355 356 5 5 350 313 234 224 233 232 229 227 220 211 210 212 210 206 204 207 210 210 210 208 206 204
307 341 61 105 139 304 320 324 334 36 115 171 159 115 96 97 87 75 64 49 44 64 71 68 72 76 62 54 50 39 31 29 25 19 14 10 2 354 353 359 3 354 335 324 179 205 218 224 223 212 203 209 220 223 219 217 216 213 209 207 204 202 200
331 348 8 36 307 299 304 296 189 83 95 135 131 113 106 98 84 83 77 55 46 61 74 67 52 45 42 38 37 40 35 26 20 16 14 9 3 358 351 351 359 2 346 328 328 188 180 196 206 203 199 200 206 214 222 225 223 215 206 200 195 193 193
316 274 294 322 313 309 321 11 98 91 85 98 107 106 104 97 91 92 88 79 67 63 77 79 64 48 42 36 33 36 35 28 21 15 14 12 4 358 353 354 1 9 10 354 345 351 10 22 195 197 196 194 193 201 208 209 204 195 191 187 184 185 186
312 270 298 330 332 346 7 21 52 81 90 95 97 99 98 91 90 90 90 91 84 75 81 84 75 66 59 50 42 37 32 26 18 12 12 12 7 2 359 356 360 10 22 21 11 7 9 11 14 23 170 180 183 190 189 185 181 180 178 176 176 178 177
337 316 334 332 330 358 28 30 33 48 67 82 86 90 94 92 88 86 87 91 88 81 82 85 82 73 65 63 57 44 35 27 16 10 9 6 3 1 356 352 357 14 32 36 30 24 19 19 24 34 50 65 83 118 148 162 171 173 171 169 167 165 165
341 271 300 312 321 9 34 40 41 36 45 67 78 84 91 90 87 86 85 87 89 82 77 82 83 71 57 57 59 50 40 33 20 13 10 3 357 354 352 354 4 25 43 44 40 39 33 29 33 44 56 67 85 98 99 119 142 144 142 151 155 153 155
284 253 289 310 335 19 23 24 35 38 35 54 73 86 93 94 95 93 84 78 82 84 80 81 84 77 62 55 60 57 48 37 26 18 14 10 4 358 353 354 8 37 56 55 49 47 40 37 41 51 60 70 88 98 98 108 121 115 101 100 119 135 142
283 247 319 335 8 37 13 4 19 28 26 47 71 82 88 90 94 98 95 89 81 79 78 79 82 83 74 63 65 64 54 43 36 28 21 15 12 10 4 358 4 26 50 63 65 59 47 44 51 63 76 86 97 109 118 123 125 123 116 102 87 95 113
281 172 19 3 40 58 19 8 25 22 8 29 66 72 76 80 81 88 95 96 88 80 74 70 75 82 77 65 66 64 54 45 43 39 32 25 16 13 16 12 7 14 24 37 51 55 45 39 44 57 83 104 114 122 131 135 134 132 129 120 107 105 109
273 144 114 68 65 60 19 23 43 31 360 0 43 58 62 65 61 65 78 87 92 93 86 72 71 79 77 66 65 67 59 47 45 44 40 35 28 24 26 25 20 20 24 25 29 33 26 14 15 42 83 104 120 133 142 146 141 135 130 125 122 127 132
224 128 130 113 92 80 46 43 56 47 14 1 22 43 53 54 52 54 60 65 74 85 87 79 70 71 76 74 69 68 65 53 49 53 51 43 36 31 30 27 24 24 26 26 30 36 36 30 33 50 70 89 125 139 141 143 141 135 131 130 131 136 142